Regional Weather Roundup
Issued by NWS

Home | Current Version | Previous Version | Graphics & Text | Print | Product List | Glossary On
Versions: 1 2 3 4 5 6 7 8 9 10 11 12 13 14 15 16 17 18 19 20 21 22 23 24 25 26 27 28 29 30 31 32 33 34 35 36 37 38 39 40 41 42 43 44 45 46 47 48 49 50
948
ASUS43 KIND 251009
RWRIN

WEATHER ROUNDUP FOR INDIANA
NATIONAL WEATHER SERVICE INDIANAPOLIS IN
600 AM EDT SUN SEP 25 2016

NOTE: "FAIR" INDICATES FEW OR NO CLOUDS BELOW 12,000 FEET WITH NO
SIGNIFICANT WEATHER AND/OR OBSTRUCTIONS TO VISIBILITY.

* - STATION DOES NOT REPORT WEATHER SUCH AS PRECIPITATION OR FOG.

+ - STATION NOT QUALITY CONTROLLED BY THE NATIONAL WEATHER SERVICE.
    USE DATA WITH CAUTION...ESPECIALLY DEWPOINT AND RELATIVE
    HUMIDITY OBSERVATIONS.

INZ001>003-010>013-019-020-251100-
NORTHWEST INDIANA

CITY           SKY/WX    TMP DP  RH WIND       PRES   REMARKS
GARY /AIRPORT/ PTCLDY    64  59  82 SE12      30.12S
KNOX *+        CLEAR     59  37  44 SE5       30.14F
LA PORTE +     CLEAR     60  60 100 SE5       30.15S
MICHIGAN CITY+ CLEAR     61  54  77 MISG      30.13F
MONTICELLO +   PTCLDY    61  54  77 E5        30.13S
RENSSELAER +   CLEAR     61  59  94 E6        30.13S
VALPARAISO     CLEAR     59  55  87 E7        30.14F

$$

LMZ046-743>745-251100-
SOUTHERN LAKE MICHIGAN

STATION/POSITION TIME  TEMP    WIND        PRES    WAVE
                       AIR SEA DIR/SP/G            HT
                 (UTC) (F)     (DEG/KT/KT) (MB)    (FT)
BURNS HARBOR     0900   65     140/ 14/ 24 1020.0F
MICHIGAN CITY    0900   63     120/ 13/ 17   N/A
5NW MICH CITY    1000   63 67  150/ 14/ 17   N/A     1

$$

INZ004-005-014>016-021>024-251100-
NORTH CENTRAL INDIANA

CITY           SKY/WX    TMP DP  RH WIND       PRES   REMARKS
GOSHEN         CLEAR     58  51  78 SE8       30.16S
LOGANSPORT +   CLEAR     59  52  77 E7        30.15S
PERU/GRISSOM   CLEAR     59  53  79 E7        30.13S
ROCHESTER +    CLEAR     61  54  77 E6        30.15F
SOUTH BEND     PTCLDY    60  53  77 SE8       30.17R
WARSAW +       CLEAR     57  48  72 SE5       30.17S

$$

INZ006>009-017-018-025>027-251100-
NORTHEAST INDIANA

CITY           SKY/WX    TMP DP  RH WIND       PRES   REMARKS
ANGOLA *+        N/A     55  45  67 SE8       30.18F
AUBURN +       CLEAR     54  50  87 CALM      30.19F
FORT WAYNE     CLEAR     55  50  83 E7        30.17S
HUNTINGTON +   CLEAR     55  52  90 CALM      30.17R
KENDALLVILLE + CLEAR     55  52  90 SE6       30.18S

$$

INZ028-029-035-036-043>045-051>053-251100-
WEST CENTRAL INDIANA

CITY           SKY/WX    TMP DP  RH WIND       PRES   REMARKS
CRAWFORDSVL +  CLEAR     61  61 100 E3        30.12S
GREENCASTLE +  CLEAR     63  63 100 E3        30.12R
LAFAYETTE      CLEAR     62  59  90 E9        30.11F
TERRE HAUTE    CLEAR     65  63  93 E3        30.09S FOG

$$

INZ030>032-037>040-046>048-054>057-064-065-251100-
CENTRAL INDIANA

CITY           SKY/WX    TMP DP  RH WIND       PRES   REMARKS
FISHERS *+     CLEAR     61  61 100 CALM      30.14S
GREENWOOD *+   CLEAR     64  63  94 NE3       30.14R
INDIANAPOLIS   CLEAR     66  60  81 E8        30.12R
-EAGLE CREEK   CLEAR     64  59  83 E5        30.13R
MARION +       CLEAR     57  52  82 E6        30.16S
MT COMFORT *+  CLEAR     59  57  94 CALM      30.14S
SHELBYVILLE    CLEAR     63  59  87 NE6       30.12R
ZIONSVILLE +   CLEAR     60  58  92 CALM      30.14S

$$

INZ033-034-041-042-049-050-058-059-251100-
EAST CENTRAL INDIANA

CITY           SKY/WX    TMP DP  RH WIND       PRES   REMARKS
MUNCIE         CLEAR     58  54  86 E5        30.15S

$$

INZ060-061-067>069-081>083-085>088-251100-
SOUTHWEST INDIANA

CITY           SKY/WX    TMP DP  RH WIND       PRES   REMARKS
EVANSVILLE     CLEAR     68  65  90 CALM      30.08S
HUNTINGBURG *+   N/A     66  63  88 CALM      30.09S
WASHINGTON +   FOG      N/A N/A N/A MISG      30.08S VSB 1/4

$$

INZ062-063-066-070>080-084-089>092-251100-
SOUTH CENTRAL AND SOUTHEAST INDIANA

CITY           SKY/WX    TMP DP  RH WIND       PRES   REMARKS
BLOOMINGTON    CLEAR     65  62  90 CALM      30.11S
MADISON *+     CLEAR     68  63  83 E5        30.13S
NORTH VERNON + CLEAR    N/A N/A N/A E3        30.12S
SEYMOUR +      CLEAR     63  61  94 CALM      30.11R FOG

$$





USA.gov is the U.S. government's official web portal to all federal, state and local government web resources and services.